Location: Unspecified
(0.0000°N, 0.0000°E)
Time: 10:39:42
(UTC+00:00)

Tiros 1 - Visible Passes

Search period start: 30 May 2024 00:00
Search period end: 09 June 2024 00:00
Orbit: 624 x 657 km, 48.4° (Epoch: 29 May)

Date Brightness Start Highest point End Pass type
(mag) Time Alt. Az. Time Alt. Az. Time Alt. Az.
30 May 9.2 04:41:54 10° S 04:45:24 21° SE 04:48:55 10° E visible
30 May 9.6 18:36:20 10° W 18:39:20 17° SW 18:42:20 10° S visible
31 May 7.3 05:04:58 11° SSW 05:09:18 69° SE 05:13:55 10° NE visible
01 Jun 9.3 03:50:56 17° SE 03:51:19 17° SE 03:54:20 10° E visible
01 Jun 8.0 05:28:58 10° WSW 05:33:11 35° NW 05:37:26 10° NNE visible
02 Jun 7.5 04:14:27 47° SSE 04:15:13 54° SE 04:19:44 10° NE visible
03 Jun 7.6 04:37:55 36° W 04:39:05 44° NW 04:43:30 10° NNE visible
04 Jun 9.5 03:23:46 21° ENE 03:23:46 21° ENE 03:25:29 10° ENE visible
04 Jun 9.1 05:01:19 12° WNW 05:03:01 14° NW 05:05:32 10° NNW visible
05 Jun 8.7 03:47:06 29° NNE 03:47:06 29° NNE 03:49:31 10° NNE visible
06 Jun 9.2 04:10:22 16° NNW 04:10:22 16° NNW 04:12:01 10° N visible
